星链-32347 (STARLINK-32347)

导读

STARLINK-32347是美国SpaceX公司星链(Starlink)互联网星座中的低轨通信卫星,于2024年9月5日发射升空。星链项目旨在构建全球覆盖的天基宽带互联网系统,该卫星运行在近地轨道,配备先进通信载荷,可提供高速低延迟网络服务,助力偏远地区接入互联网,进一步扩充了星链星座的全球网络覆盖能力,推动全球互联基础设施建设。

基本信息
目录编号:
61010
目录名称:
STARLINK-32347
国际标识:
2024-158W
轨道中心:
EARTH
卫星名称:
星链-32347
卫星全名:
星链-32347 (STARLINK-32347)
卫星状态:
在轨 (已飞行729 天)
发射日期:
2024-09-05 UTC
国别 :
美国 (US)
星等 :
--
轨道信息
数据来源 国际轨道数据
星历时间: 2026-09-03T21:51:13+0800
23小时前
查看轨道信息
半长轴: 6840.871km
偏心率: 0.0001083
轨道倾角: 53.162°
近地点辐角 89.886°
升交点赤经 316.640°
平近点角 270.227°
近地点: 461.993km
远地点: 463.475km
周期: 93.848分钟
每日圈数: 15.343899
详细信息
固有亮度:
5
最大亮度:
2.5
卫星平台:
Starlink V1.0
覆盖范围:
全球
运营商:
太空探索技术公司
运营商所在国:
美国
制造商(研发单位):
太空探索技术公司
制造商所在国:
美国
使用方式:
暂无
卫星简介
Starlink 计划是 SpaceX 推出的全球卫星互联网项目,通过发射低轨道卫星,为全球尤其是偏远地区提供高速、低延迟的互联网服务。自 2019 年起,Starlink 已部署数千颗卫星,旨在缩小全球数字鸿沟,推动互联网普及。该项目还为军事、航空等行业提供通信支持,带来广泛经济效益。
2D轨道图
3D轨道图
轨道高度分析图
轨道倾角分析图
轨道综合分析图
查看轨道综合分析图
交会数据列表
事件ID 空间交会对象 最接近时刻(TCA) 交会距离 交会风险概率(CRP) 交会风险指数(CRI) 操作
CDM_260906-145006-101006-692821
2026-09-06T
14:50:25+0000
0.412 km
远距离
2.013685E-4 高风险 0.81
CDM_260906-044006-101006-692821
2026-09-06T
04:40:46+0000
0.437 km
远距离
1.774232E-4 高风险 0.8
CDM_260906-061406-101006-692821
2026-09-06T
06:14:34+0000
2.370 km
极远距离
1.223488E-6 低风险 0.37
CDM_260902-135605-419006-101021
2026-09-02T
13:56:53+0000
2.333 km
极远距离
1.053807E-6 低风险 0.35
CDM_260906-030606-101006-692821
2026-09-06T
03:06:59+0000
2.945 km
极远距离
8.830926E-7 极低风险 0.34
CDM_260914-230005-250206-101021
2026-09-14T
23:00:55+0000
2.966 km
极远距离
2.242889E-7 极低风险 0.22